Location: Bay Ridge
(40.6340°N, 74.0146°W)
Time: 23:48:18
(UTC+00:00)

Ariane Rocket - Pass Details

Date: 15 November 2019
Orbit: 759 x 771 km, 98.7° (Epoch: 11 December)

Event Time Altitude Azimuth Distance (km) Brightness Sun altitude
Exits shadow 00:32:14 30° 325° (NW) 1,344 4.5 -32.8°
Drops below altitude 10° 00:34:55 10° 338° (NNW) 2,315 5.7 -33.4°
Sets 00:37:16 0° 343° (NNW) 3,244 6.5 -33.8°
